• Join FlightAware (Why Join?)
  • Login
  • US Flag GB Flag 
05:16 EST


 

Airport Tracker/Info


-or-


 

Live Flight TrackerFlight Track Log ✈ DAL268 ✈ 26-May-2013 ✈ KATL - KJFK

Flight Track Log - Related Links

Times and Time Zones

All times are in EDT time to prevent confusion due to time zone crossing. See the DAL268 flight status page for this flight to view local times or setup timezone preferences in your user account.

Time Position Orientation Groundspeed Altitude Reporting Facility
EDT Latitude Longitude Course Direction KTS MPH feet Rate Location/Type
20:05 33.6333 -84.4667 64° Northeast 168 193 2,100  Level Atlanta TRACON
20:06 33.6167 -84.5333 253° West 243 280 3,700 2,160 Climbing Atlanta TRACON
20:07 33.5667 -84.5833 220° Southwest 280 322 6,500 2,340 Climbing Atlanta TRACON
20:08 33.8632 -84.1313 101° East  Level Estimated
20:09 33.8063 -84.0157 121° Southeast  Level FlightAware Approximate
20:09 33.4572 -84.4969 147° Southeast 272 313 10,800  Level Atlanta Center
20:10 33.7493 -83.9002 121° Southeast  Level FlightAware Approximate
20:10 33.4556 -84.3947 91° East 303 349 11,800  Level Atlanta Center
20:11 33.8261 -83.8028 64° Northeast  Level Estimated
20:11 33.4642 -84.2606 86° East 370 426 13,600  Level Atlanta Center
20:13 33.5731 -84.0039 63° Northeast 425 489 17,900 1,980 Climbing Atlanta Center
20:14 33.6167 -83.8642 69° East 437 503 19,700 1,800 Climbing Atlanta Center
20:15 33.6478 -83.7144 76° East 448 516 21,600 1,680 Climbing Atlanta Center
20:16 33.6911 -83.5644 71° East 460 529 23,100 1,740 Climbing Atlanta Center
20:17 33.7489 -83.4217 64° Northeast 465 535 25,100 1,560 Climbing Atlanta Center
20:18 33.8064 -83.2789 64° Northeast 475 547 26,300 1,260 Climbing Atlanta Center
20:19 33.8639 -83.1306 65° Northeast 475 547 27,700 1,320 Climbing Atlanta Center
20:20 33.9211 -82.9872 64° Northeast 475 547 29,000 600 Climbing Atlanta Center
20:21 33.9844 -82.8339 63° Northeast 470 541 29,000  Level Atlanta Center
20:22 34.0394 -82.6900 65° Northeast 470 541 29,000  Level Atlanta Center
20:23 34.0942 -82.5486 65° Northeast 461 531 29,000  Level Atlanta Center
20:24 34.1528 -82.4072 63° Northeast 461 531 29,000  Level Atlanta Center
20:25 34.2092 -82.2603 65° Northeast 461 531 29,000  Level Atlanta Center
20:26 34.2675 -82.1158 64° Northeast 466 536 29,000  Level Atlanta Center
20:27 34.3342 -81.9811 59° Northeast 466 536 29,000  Level Atlanta Center
20:28 34.4050 -81.8408 59° Northeast 472 543 29,000  Level Atlanta Center
20:29 34.4672 -81.7158 59° Northeast 477 549 29,000  Level Atlanta Center
20:30 34.5375 -81.5778 58° Northeast 477 549 29,000  Level Atlanta Center
20:31 34.6036 -81.4394 60° Northeast 477 549 29,000  Level Atlanta Center
20:32 34.6736 -81.3033 58° Northeast 477 549 29,000  Level Atlanta Center
20:33 34.7414 -81.1622 60° Northeast 478 550 29,000  Level Atlanta Center
20:34 34.8111 -81.0258 58° Northeast 478 550 29,000  Level Atlanta Center
20:35 34.8825 -80.8764 60° Northeast 473 544 29,000  Level Atlanta Center
20:36 34.9519 -80.7342 59° Northeast 478 550 29,000  Level Atlanta Center
20:37 35.0169 -80.5947 60° Northeast 478 550 29,000  Level Atlanta Center
20:39 35.1625 -80.2897 60° Northeast 469 540 29,000  Level Washington Center
20:40 35.2261 -80.1508 61° Northeast 469 540 29,000  Level Washington Center
20:41 35.2981 -80.0125 57° Northeast 470 541 29,000  Level Washington Center
20:42 35.3639 -79.8711 60° Northeast 470 541 29,000  Level Washington Center
20:43 35.4314 -79.7292 60° Northeast 470 541 29,000  Level Washington Center
20:44 35.4642 -79.5678 76° East 470 541 29,000  Level Washington Center
20:45 35.4697 -79.3947 88° East 480 552 29,000 -420 Level Washington Center
20:46 35.4792 -79.2267 86° East 495 570 28,200 -1,020 Descending Washington Center
20:47 35.5111 -79.0647 76° East 494 568 27,000 -660 Descending Washington Center
20:48 35.5656 -78.9064 67° East 484 557 27,000  Level Washington Center
20:49 35.6219 -78.7528 66° East 490 564 27,000  Level Washington Center
20:50 35.6761 -78.5964 67° East 495 570 27,000  Level Washington Center
20:51 35.7253 -78.4550 67° East 495 570 27,000  Level Washington Center
20:52 35.7792 -78.2956 67° East 490 564 27,000  Level Washington Center
20:53 35.8283 -78.1436 68° East 490 564 27,000  Level Washington Center
20:54 35.8839 -77.9839 67° East 490 564 27,000  Level Washington Center
20:55 35.9350 -77.8289 68° East 490 564 27,000  Level Washington Center
20:56 35.9939 -77.6742 65° Northeast 490 564 27,000  Level Washington Center
20:57 36.0756 -77.5450 52° Northeast 478 550 27,000  Level Washington Center
20:58 36.1547 -77.4158 53° Northeast 478 550 27,000  Level Washington Center
20:59 36.2422 -77.2736 53° Northeast 472 543 27,000  Level Washington Center
21:00 36.3214 -77.1414 53° Northeast 477 549 27,000  Level Washington Center
21:01 36.4000 -77.0114 53° Northeast 477 549 27,000  Level Washington Center
21:02 36.4744 -76.8911 52° Northeast 477 549 27,000  Level Washington Center
21:03 36.5614 -76.7478 53° Northeast 477 549 27,000  Level Washington Center
21:04 36.6253 -76.6039 61° Northeast 477 549 27,000  Level Washington Center
21:05 36.6539 -76.4333 78° East 488 562 27,000  Level Washington Center
21:06 36.7008 -76.2733 70° East 488 562 27,000  Level Washington Center
21:07 36.7931 -76.1858 37° Northeast 460 529 27,000  Level Washington Center
21:08 36.9058 -76.1139 27° Northeast 438 504 27,000  Level Washington Center
21:09 37.0397 -76.0497 21° North 470 541 27,000  Level Washington Center
21:10 37.1422 -75.9906 25° Northeast 460 529 27,000  Level Washington Center
21:11 37.2592 -75.9258 24° Northeast 455 524 27,000  Level Washington Center
21:12 37.3742 -75.8661 22° Northeast 450 518 27,000  Level Washington Center
21:13 37.4889 -75.8011 24° Northeast 450 518 27,000  Level Washington Center
21:14 37.6036 -75.7333 25° Northeast 445 512 27,000  Level Washington Center
21:15 37.7206 -75.6628 26° Northeast 445 512 27,000  Level Washington Center
21:16 37.8353 -75.5969 24° Northeast 445 512 27,000  Level Washington Center
21:17 37.9478 -75.5311 25° Northeast 445 512 27,000  Level Washington Center
21:18 38.0647 -75.4625 25° Northeast 445 512 27,000  Level Washington Center
21:19 38.1792 -75.3936 25° Northeast 445 512 27,000 -60 Level Washington Center
21:20 38.2897 -75.3272 25° Northeast 445 512 26,900  Descending Washington Center
21:21 38.3894 -75.2581 29° Northeast 426 490 27,000  Climbing Washington Center
21:22 38.4956 -75.1939 25° Northeast 416 479 27,000  Level Washington Center
21:23 38.5975 -75.1294 26° Northeast 405 466 27,000 -60 Level Washington Center
21:24 38.7036 -75.0650 25° Northeast 405 466 26,900 -60 Descending Washington Center
21:25 38.7972 -74.9978 29° Northeast 400 460 26,900 -780 Level Washington Center
21:26 38.8928 -74.9436 24° Northeast 389 448 25,400 -1,500 Descending Washington Center
21:27 38.9839 -74.8733 31° Northeast 378 435 23,900 -1,380 Descending Washington Center
21:28 39.0753 -74.8189 25° Northeast 373 429 22,700 -1,260 Descending Washington Center
21:29 39.1561 -74.7458 35° Northeast 366 421 21,400 -1,380 Descending Washington Center
21:30 39.2347 -74.6564 41° Northeast 356 410 20,000 -1,440 Descending Washington Center
21:31 39.3050 -74.5803 40° Northeast 349 402 18,600 -660 Descending Washington Center
21:34 39.4656 -74.4039 40° Northeast 344 396 18,000 -240 Descending New York Center
21:35 39.5389 -74.3214 41° Northeast 344 396 18,000  Level New York Center
21:36 39.6189 -74.2339 40° Northeast 339 390 18,000 -60 Level New York Center
21:37 39.6919 -74.1511 41° Northeast 345 397 17,900 -600 Descending New York Center
21:38 39.7567 -74.0814 40° Northeast 345 397 16,800 -1,320 Descending New York Center
21:39 39.8275 -74.0036 40° Northeast 345 397 15,300 -1,740 Descending New York Center
21:40 39.9086 -73.9397 31° Northeast 316 364 13,400 -1,500 Descending New York Center
21:41 39.9786 -73.8889 29° Northeast 298 343 12,300 -720 Descending New York Center
21:42 40.0317 -73.8533 27° Northeast 285 328 12,000 -180 Descending New York Center
21:43 40.0975 -73.8833 341° North 224 258 12,000 -180 Level New York Center
21:44 40.0744 -73.9744 252° West 173 199 11,700 -540 Descending New York Center
21:45 40.0086 -74.0175 207° Southwest 174 200 11,000 -360 Descending New York Center
21:46 39.9383 -73.9897 163° South 250 288 11,000  Level New York Center
21:47 39.9656 -73.9100 66° East 172 198 11,000  Level New York Center
21:48 40.0214 -73.8447 42° Northeast 233 268 11,000 -360 Level New York Center
21:49 40.0775 -73.7739 44° Northeast 248 285 10,300 -1,080 Descending New York Center
21:50 40.1183 -73.7214 45° Northeast 237 273 8,900 -1,200 Descending New York Center
21:51 40.1619 -73.6500 51° Northeast 232 267 8,000 -600 Descending New York Center
21:52 40.2075 -73.6572 353° North 179 206 7,700 -600 Descending New York Center
21:53 40.1931 -73.7356 256° West 104 120 6,800 -1,020 Descending New York Center
21:54 40.1456 -73.7172 164° South 116 133 5,700 -1,380 Descending New York Center
21:55 40.1806 -73.6589 52° Northeast 123 142 4,100 -1,500 Descending New York Center
21:55 40.2000 -73.6500 19° North 210 242 3,800 -900 Descending New York TRACON
21:56 40.2500 -73.6167 27° Northeast 206 237 3,000 -480 Descending New York TRACON
21:57 40.2861 -73.5981 21° North 198 228 3,000 -300 Level New York Center
21:58 40.3286 -73.5644 31° Northeast 203 234 2,500 -540 Descending New York Center
21:59 40.3839 -73.5231 30° Northeast 203 234 2,000 -420 Descending New York Center
21:59 40.4000 -73.5000 47° Northeast 203 234 2,000  Level New York TRACON
22:00 40.4500 -73.4667 27° Northeast 201 231 2,000  Level New York TRACON
22:01 40.5000 -73.4333 27° Northeast 189 217 2,000  Level New York TRACON
22:02 40.5333 -73.4333 360° North 166 191 2,000  Level New York TRACON
22:03 40.5333 -73.5000 270° West 165 190 2,000  Level New York TRACON
22:04 40.5500 -73.5500 294° West 162 186 2,000  Level New York TRACON
22:05 40.5667 -73.6000 294° West 163 188 2,000  Level New York TRACON